CAPE
0 0 0 0 0 0 0 0 0 0 39 274 383 398 446 491 596 550 1178 883 279 572 1186 1759 2849 2422 2142 1703 1332 1808 1234 1744 1374 953 1048 1250 1121 1077 871 596 293 201 167 119 772 737 687 581 403
0 0 0 0 0 0 0 0 0 0 0 0 52 115 47 0 747 1032 1083 927 315 561 1206 1344 2731 2650 1891 1453 1477 1476 1243 1717 1299 1272 1323 1279 1214 1030 926 529 373 304 403 770 799 770 632 532 387
0 0 0 0 0 0 0 0 0 0 0 0 2 356 124 123 593 628 880 954 179 963 1192 1218 2651 2571 2336 1763 1768 2131 1576 1607 1283 1180 1158 1269 1278 1294 960 748 451 376 653 835 936 717 648 482 388
0 0 0 0 0 0 0 0 0 0 0 0 54 0 407 663 625 648 1120 531 347 1074 1208 1656 2341 1886 1559 1542 1649 1592 2447 1768 1572 1015 957 1497 1372 1456 1238 1006 637 558 782 871 819 751 598 477 362
0 0 0 0 0 0 0 0 0 0 0 0 0 0 0 1097 1033 1092 1278 668 557 965 1049 1408 1757 1477 2198 2367 1754 1524 1559 1707 1308 976 997 1568 1555 1384 1431 1208 849 620 840 841 796 860 577 459 347
0 0 0 0 0 0 0 0 0 0 0 0 0 0 113 1219 1298 1553 1426 1135 963 968 954 1083 1860 2084 2123 1884 1754 1485 1498 1449 1364 1398 1371 1639 1566 1419 1574 1380 1061 763 756 878 728 750 790 491 363
0 0 0 0 0 0 0 0 0 0 0 0 0 0 16 531 1447 1639 1619 1425 1215 1033 834 706 1021 1375 1524 1806 1783 1440 1350 1380 1255 1153 1238 1421 1766 1645 1767 1581 1322 1045 810 795 689 668 858 666 430
0 0 0 0 0 0 0 0 0 0 0 0 0 0 0 1 1107 1635 1655 1702 1498 1223 943 698 658 899 1092 1194 1802 1844 1723 1459 1250 1232 1394 1526 1657 1663 1703 1503 1411 1290 1042 747 482 568 962 948 533
0 0 0 0 0 0 0 0 0 0 0 0 0 0 0 6 1157 1743 1793 1830 1773 1603 1418 828 663 924 1039 1055 1295 1788 1816 1795 1933 1718 1669 1384 1165 1420 1455 1315 1416 1343 1139 913 430 335 970 970 640
0 0 0 0 0 0 0 0 0 0 0 0 0 0 0 0 82 923 1819 1800 1690 1651 1412 816 708 953 1251 1118 1295 1194 942 861 1153 1161 756 381 824 1054 1201 1115 1326 1068 1115 1049 620 266 719 730 456
0 0 0 0 0 0 0 0 0 0 0 0 0 0 0 0 0 0 229 1419 1600 1580 1442 967 938 1224 1514 1596 1717 1903 1595 1450 1439 1350 734 1257 1038 1293 1400 1453 1278 1202 1283 882 863 458 136 28 237
0 0 0 0 0 0 0 0 0 0 0 0 0 0 0 0 0 0 0 106 1451 1477 1585 1284 1238 1455 1853 2096 2521 2290 2152 2034 1649 1772 1347 1131 1283 1170 1352 1490 1420 1381 1289 1061 865 1062 130 0 8
0 0 0 0 0 0 0 0 0 0 0 0 0 0 0 0 0 0 0 0 1027 1661 1608 1736 1646 1878 2130 2158 2346 2303 2166 1990 1553 1956 1782 1474 1175 1130 1320 1428 1350 1604 1325 1222 1127 842 119 4 8
0 0 0 0 0 0 0 0 0 0 0 0 0 0 0 0 0 0 0 0 506 1530 1737 1771 1947 2166 2245 2425 2355 2323 2160 1920 1914 1636 1375 1540 1487 1140 956 1206 1447 1324 1306 1296 959 920 414 154 120
0 0 0 0 0 0 0 0 0 0 0 0 0 0 0 0 0 0 0 0 0 29 1131 1956 1970 2288 2577 2532 2533 2432 2198 2082 1917 1666 1631 1393 1409 1139 955 1350 1439 1378 1445 969 860 704 663 454 161
0 0 0 0 0 0 0 0 0 0 0 0 0 0 0 0 0 0 0 0 0 0 0 0 970 2188 2633 2687 2611 2541 2368 2189 2060 1736 1791 1643 1488 1327 1003 1169 838 1284 1289 1094 972 860 749 487 384
0 0 0 0 0 0 0 0 0 0 0 0 0 0 0 0 0 0 0 0 0 0 0 0 0 1537 2449 2788 2751 2674 2489 2305 2191 1944 1924 1863 1502 1329 1230 1254 1195 1259 1210 982 994 800 601 465 367
0 0 0 0 0 0 0 0 0 0 0 0 0 0 0 0 0 0 0 0 0 0 0 0 27 698 1451 2822 2890 2849 2718 2477 1975 2151 2034 1922 1689 1572 1392 1245 1242 1186 1141 380 495 523 406 379 329
0 0 0 0 0 0 0 0 0 0 0 0 0 0 0 0 0 0 0 0 0 0 0 0 1 548 1569 2780 2993 2877 2682 2738 2151 2157 2113 1845 1691 1485 1324 1061 1084 935 993 189 161 181 320 151 128
0 0 0 0 0 0 0 0 0 0 0 0 0 0 0 0 0 0 0 0 2 0 0 0 0 58 1549 2661 2931 2589 2366 2431 2685 2310 2042 1756 1574 1573 1250 1086 997 915 915 538 195 238 55 36 107
0 0 0 0 0 0 0 0 0 0 0 0 0 0 0 0 0 0 0 0 3 14 44 34 5 0 621 2356 2838 2588 2744 2320 2340 2203 1992 1764 1642 1541 1254 1113 1027 1041 800 628 402 361 230 105 63
0 0 0 0 0 0 0 0 0 0 0 0 0 0 0 0 0 0 0 0 0 3 31 86 63 0 0 1491 2379 2437 2229 2110 1934 1910 2116 1924 1727 1614 1333 1094 1035 967 606 586 540 324 197 165 79
0 0 0 0 0 0 0 10 0 0 0 0 0 0 0 0 0 0 0 0 0 1 5 68 661 186 5 918 2119 2462 2336 2222 1971 1981 1986 1777 1643 1605 1322 1145 1044 914 709 355 248 179 144 133 112
0 0 0 0 0 1 0 5 0 0 0 0 0 0 0 0 0 0 0 0 0 0 11 19 134 1333 1203 1483 1861 1943 2029 2511 2128 1922 1918 1706 1568 1431 1153 1027 851 634 375 235 231 125 88 73 36
0 0 1 16 27 5 0 0 0 0 0 0 0 0 0 0 0 0 0 0 0 0 0 0 56 324 1132 1820 1945 2148 2060 2163 1878 1904 1906 1633 1268 1197 1028 840 718 485 307 250 138 104 47 76 68
0 0 16 37 30 39 0 0 16 0 0 0 0 0 0 0 0 0 0 0 0 0 0 0 12 39 260 1037 1947 1852 1444 1540 1409 483 1065 1422 1198 949 795 652 487 500 234 87 81 82 110 51 118
0 0 0 0 0 4 0 0 0 0 0 0 0 0 0 0 0 0 0 0 0 0 0 0 9 88 78 314 866 868 824 602 279 215 2 89 716 674 551 321 354 236 129 77 101 119 40 108 128
0 0 0 0 2 21 3 0 19 2 0 0 0 0 0 0 0 0 0 0 0 0 0 0 15 247 157 89 323 419 488 474 251 105 46 87 86 182 230 259 248 123 60 104 104 33 93 73 106
0 0 0 0 4 17 10 1 0 0 0 0 0 0 0 0 0 0 0 0 0 0 0 0 0 406 485 129 99 248 386 437 122 38 2 40 177 196 262 259 48 49 99 62 54 72 24 5 26
0 0 0 16 6 4 1 0 0 0 0 0 0 0 0 0 0 0 0 0 0 0 0 0 0 163 295 473 551 379 314 188 47 10 0 20 198 267 187 73 32 43 33 28 66 27 6 16 3
CIN
0 0 0 0 0 0 0 0 0 0 -67 -72 -64 -35 -29 -22 -8 -7 -232 -262 -337 -240 -116 -38 0 0 0 0 0 0 -7 0 0 0 0 0 0 0 0 -4 -40 -62 -70 -78 0 0 0 0 0
0 0 0 0 0 0 0 0 0 0 0 0 -184 -85 -41 0 -61 -134 -193 -266 -345 -243 -115 -74 0 0 0 -2 -2 -1 -6 0 -1 0 0 0 0 0 0 -2 -16 -32 -19 0 0 0 0 0 0
0 0 0 0 0 0 0 0 0 0 0 0 -8 -52 -60 -53 -70 -75 -171 -238 -326 -167 -99 -76 0 0 0 -2 0 -2 -2 -1 -6 -4 0 0 0 0 0 0 -1 -7 0 0 0 0 0 0 0
0 0 0 0 0 0 0 0 0 0 0 0 -162 -5 -50 -78 -66 -96 -146 -210 -218 -135 -91 -39 0 -1 -9 -6 -1 -2 0 -1 0 -12 -6 0 0 0 0 0 0 0 0 0 0 0 0 0 0
0 0 0 0 0 0 0 0 0 0 0 0 0 0 0 -46 -98 -107 -125 -162 -142 -118 -96 -56 -7 -15 0 0 0 -3 -3 -1 -3 -17 -9 0 0 0 0 0 0 -8 0 0 0 0 0 0 0
0 0 0 0 0 0 0 0 0 0 0 0 0 0 -106 -53 -61 -79 -87 -92 -106 -108 -97 -77 -13 0 0 0 0 0 0 -2 -1 0 0 0 0 0 0 0 0 -2 0 0 0 0 0 0 -2
0 0 0 0 0 0 0 0 0 0 0 0 0 0 -154 -33 -53 -68 -69 -77 -89 -92 -106 -95 -61 -21 -11 0 0 0 0 0 -1 -1 -1 0 0 0 0 0 0 0 0 0 0 0 0 0 -4
0 0 0 0 0 0 0 0 0 0 0 0 0 0 0 -321 -63 -59 -68 -63 -73 -84 -93 -102 -91 -56 -27 -22 -1 0 0 0 0 0 0 0 0 0 0 0 0 0 0 -1 -18 -2 -1 0 -3
0 0 0 0 0 0 0 0 0 0 0 0 0 0 0 -221 -60 -43 -42 -37 -48 -60 -65 -87 -94 -59 -36 -31 -13 -1 0 0 0 0 0 -1 0 0 0 -2 -3 0 0 0 -15 -22 0 0 -1
0 0 0 0 0 0 0 0 0 0 0 0 0 0 0 0 -83 -35 -22 -17 -33 -43 -54 -82 -91 -61 -36 -27 -7 -3 -6 -10 -2 0 -3 -16 0 0 -1 -3 -4 0 0 0 0 -34 0 -11 0
0 0 0 0 0 0 0 0 0 0 0 0 0 0 0 0 0 0 -92 -5 -13 -23 -44 -80 -66 -32 -10 -2 -2 0 0 0 0 0 -10 0 0 0 0 0 0 0 0 0 0 -5 -24 -78 0
0 0 0 0 0 0 0 0 0 0 0 0 0 0 0 0 0 0 0 -55 0 -19 -28 -47 -41 -37 -8 0 0 0 0 0 0 0 0 0 0 0 0 0 0 0 0 0 0 0 -15 0 -113
0 0 0 0 0 0 0 0 0 0 0 0 0 0 0 0 0 0 0 0 0 -1 -21 -33 -32 -12 -11 0 -2 0 0 0 0 0 0 0 0 0 0 0 0 0 0 0 0 0 -32 -56 -91
0 0 0 0 0 0 0 0 0 0 0 0 0 0 0 0 0 0 0 0 -4 -2 -1 -7 -25 -15 -8 -5 0 0 0 0 0 0 0 0 0 0 0 0 0 0 0 -2 -6 -3 0 -7 -9
0 0 0 0 0 0 0 0 0 0 0 0 0 0 0 0 0 0 0 0 0 -1 0 0 -4 -3 -6 -10 0 -1 0 0 0 0 0 0 0 0 0 0 0 0 0 -3 0 0 0 0 -1
0 0 0 0 0 0 0 0 0 0 0 0 0 0 0 0 0 0 0 0 0 0 0 0 -19 -13 -9 -6 -3 0 -2 -1 0 0 0 0 0 0 -12 -6 -15 0 0 0 0 0 0 0 0
0 0 0 0 0 0 0 0 0 0 0 0 0 0 0 0 0 0 0 0 0 0 0 0 0 -23 -11 -8 -2 -2 0 -1 0 0 0 0 0 0 -1 0 0 0 0 0 0 0 0 0 0
0 0 0 0 0 0 0 0 0 0 0 0 0 0 0 0 0 0 0 0 0 0 0 0 -187 -77 -36 -2 -1 0 0 -2 0 0 0 -1 0 0 0 0 0 0 0 -24 -9 0 0 0 0
0 0 0 0 0 0 0 0 0 0 0 0 0 0 0 0 0 0 0 0 0 0 0 0 -54 -96 -46 -1 0 0 -1 0 0 0 -2 -2 0 -2 0 0 0 0 0 -31 -21 -11 0 -7 -14
0 0 0 0 0 0 0 0 0 0 0 0 0 0 0 0 0 0 0 0 0 0 0 0 0 -104 -57 -2 -1 -7 -7 0 -3 -10 -1 -4 -4 -1 -4 -8 -3 0 0 -5 -18 -4 -22 -19 -18
0 0 0 0 0 0 0 0 0 0 0 0 0 0 0 0 0 0 0 0 0 -152 -282 -335 -320 0 -157 -10 0 0 -1 -7 -11 -12 -7 -6 -3 -10 -19 -9 -3 0 -2 -1 -2 0 -1 -8 -6
0 0 0 0 0 0 0 0 0 0 0 0 0 0 0 0 0 0 0 0 0 0 -313 -279 -252 0 0 -54 -3 -2 -31 -43 -40 -48 -24 -10 -4 -7 -13 -10 -2 0 -7 0 0 0 -1 0 -2
0 0 0 0 0 0 0 0 0 0 0 0 0 0 0 0 0 0 0 0 0 0 -21 -276 -139 -300 -22 -137 -16 -1 -7 0 -26 -60 -27 -21 -10 -7 -12 -4 0 0 0 -2 0 0 0 0 0
0 0 0 0 0 0 0 0 0 0 0 0 0 0 0 0 0 0 0 0 0 0 -118 -363 -331 -76 -93 -58 -33 -32 -16 0 -2 -52 -39 -29 -16 -10 -11 -3 0 0 -2 0 0 0 0 0 0
0 0 0 0 0 0 -2 0 0 0 0 0 0 0 0 0 0 0 0 0 0 0 0 0 -334 -210 -76 -17 -24 -19 -5 0 0 -28 -63 -41 -32 -18 -12 -2 0 0 -5 0 0 0 0 -1 -8
0 0 0 0 0 0 0 0 -11 0 0 0 0 0 0 0 0 0 0 0 0 0 0 0 -305 -428 -310 -48 -5 -28 -82 -13 -33 -159 -15 -16 -36 -31 -22 -6 -1 0 0 0 0 0 0 -7 -3
0 0 0 0 0 0 0 0 0 0 0 0 0 0 0 0 0 0 0 0 0 0 0 0 -59 -113 -116 -118 -74 -120 -86 -110 -134 -256 -33 -44 -26 -19 -16 -16 -5 0 0 0 0 0 -9 0 0
0 0 0 0 -1 0 0 0 0 0 0 0 0 0 0 0 0 0 0 0 0 0 0 0 -134 -29 -151 -244 -162 -134 -104 -125 -150 -231 -185 -33 -61 -58 -26 -4 0 0 -4 0 0 -5 0 0 0
0 0 0 0 0 0 0 -1 0 0 0 0 0 0 0 0 0 0 0 0 0 0 0 0 0 -32 -14 -135 -191 -134 -93 -79 -171 -163 -220 -71 -4 -47 -3 0 -49 -31 -7 -2 -3 0 -2 -2 -22
0 0 0 0 0 0 0 0 0 0 0 0 0 0 0 0 0 0 0 0 0 0 0 0 0 -47 -34 -1 -2 -20 -25 -50 -107 -119 -139 -79 -2 -1 -2 -7 -36 -23 -14 -25 0 0 -1 0 0
Wind_Speed
3 3 2 3 5 5 5 6 2 5 5 3 1 2 4 4 5 5 2 10 8 15 16 16 14 13 17 15 12 13 11 11 12 11 9 10 10 10 10 10 9 9 8 7 9 11 12 12 11
1 2 2 1 5 6 6 5 6 4 3 5 4 5 5 4 2 4 6 10 12 15 14 16 14 14 13 13 12 13 12 13 11 9 7 9 9 9 8 9 9 9 8 8 10 12 11 11 11
2 2 3 3 3 3 2 3 3 6 7 4 2 2 4 3 2 3 3 10 14 15 14 13 14 13 12 12 11 13 12 13 13 11 9 10 9 10 8 9 8 7 8 8 10 10 11 10 10
3 3 3 5 3 2 1 4 3 5 3 3 2 3 4 3 2 3 8 12 14 15 13 13 12 13 12 12 10 9 12 13 12 10 9 7 11 11 11 9 8 7 7 8 9 9 9 9 10
1 3 4 3 2 1 3 3 6 5 1 1 3 2 1 4 3 6 10 11 13 14 13 14 13 12 12 11 13 9 9 10 9 9 9 6 11 10 11 10 10 9 8 8 8 8 8 9 9
2 3 5 5 2 2 2 2 5 4 1 2 2 2 4 4 2 4 7 10 10 12 12 13 13 12 11 11 10 10 10 9 8 7 7 7 9 10 11 11 10 9 8 7 7 7 8 8 9
3 3 4 4 4 3 1 3 2 5 3 4 5 4 3 8 3 6 7 8 8 10 11 10 12 13 11 10 10 10 10 9 9 9 7 5 7 9 10 12 11 10 10 8 7 6 7 8 8
1 3 3 2 1 1 3 1 2 5 3 5 5 3 2 8 1 4 6 7 8 10 11 11 11 12 12 12 10 10 10 10 9 8 7 4 6 8 10 11 11 10 9 9 7 6 6 8 7
1 5 5 2 2 2 2 3 0 4 6 2 1 5 6 6 0 5 7 9 9 9 12 12 11 11 10 10 11 10 10 10 9 8 7 8 9 9 10 8 11 10 9 9 8 7 6 7 6
5 4 1 1 1 2 3 5 9 6 6 8 6 4 3 2 4 9 11 10 11 12 12 11 12 12 12 9 10 11 9 9 9 9 9 9 8 6 4 6 9 10 10 9 9 8 7 8 5
3 4 2 2 4 5 6 10 4 9 8 6 11 12 10 9 9 10 12 13 13 11 10 12 12 12 12 10 7 6 6 6 6 8 7 7 5 5 7 5 6 8 10 7 9 9 7 6 5
6 6 6 3 1 5 10 11 10 11 14 12 13 15 15 15 14 11 12 13 13 12 13 12 13 11 13 8 8 8 7 7 6 7 8 7 5 6 5 5 7 6 6 7 7 5 4 5 6
7 5 6 7 8 10 9 13 12 16 12 6 8 8 10 13 14 14 14 12 12 14 15 15 14 14 12 13 9 8 9 8 9 8 9 8 7 6 6 6 6 6 6 6 6 5 5 6 6
4 8 11 9 12 9 11 12 3 4 2 9 7 9 9 10 10 10 12 14 13 14 15 15 18 16 14 14 13 10 9 9 9 8 9 11 7 7 7 7 6 6 6 6 5 6 6 5 6
6 10 12 11 5 2 3 9 9 3 7 13 12 10 7 9 11 9 9 11 13 14 13 15 17 17 17 16 14 11 9 9 9 8 10 11 10 9 7 6 5 5 5 6 6 7 5 4 3
9 7 7 5 3 4 4 11 1 3 12 14 16 14 12 11 11 9 12 13 13 13 15 16 15 17 18 16 13 10 9 8 8 8 8 11 11 9 5 4 4 6 5 5 5 5 4 4 4
6 11 10 10 2 2 3 12 7 13 16 14 12 10 9 10 9 12 13 13 14 13 14 14 17 19 18 17 13 12 11 9 9 8 7 9 9 9 7 6 6 7 5 5 4 4 3 4 3
12 13 14 12 4 13 18 21 17 15 15 12 9 8 9 11 13 13 14 12 12 12 13 13 12 15 17 13 12 10 9 9 9 8 7 9 8 9 7 5 7 7 7 5 4 5 3 3 3
13 16 20 17 15 16 16 16 15 15 14 6 3 7 11 13 13 14 14 15 14 13 11 11 13 16 13 13 12 12 12 10 9 8 10 10 8 10 9 7 8 7 7 7 6 5 5 2 4
15 18 19 16 7 7 16 18 17 15 3 4 6 8 10 13 14 15 17 16 16 16 14 12 12 15 14 12 12 11 11 9 8 7 9 10 10 10 9 9 8 8 7 9 9 7 4 2 4
14 17 18 18 15 15 16 18 6 9 10 6 8 10 12 14 15 15 17 17 17 18 18 15 13 14 15 16 10 8 7 6 7 9 9 10 11 11 10 10 8 9 6 7 8 7 7 4 4
16 11 15 15 11 12 2 10 12 10 10 7 8 10 14 15 16 15 15 17 18 18 18 17 12 11 14 15 13 16 13 12 10 10 11 10 12 11 10 10 9 9 7 8 7 6 6 6 5
13 2 10 13 14 16 19 9 14 6 14 5 9 13 12 13 14 16 17 16 18 16 17 17 17 6 9 12 15 13 14 10 9 11 13 11 11 11 10 10 10 9 7 7 8 8 7 4 4
7 10 13 12 12 16 22 18 14 11 4 4 7 10 13 14 14 15 15 17 17 17 17 18 19 13 5 10 13 15 14 13 10 13 12 10 9 9 10 10 9 9 8 9 7 6 6 5 3
10 12 10 11 11 15 5 9 12 8 6 6 6 9 12 15 17 17 18 16 18 20 19 14 18 14 10 6 11 9 11 11 14 14 13 15 10 9 10 10 10 8 8 7 6 7 6 5 4
9 14 12 13 13 13 2 8 2 10 8 5 5 9 12 16 16 19 19 16 16 18 18 17 18 20 15 13 8 7 7 6 5 7 1 11 10 9 12 10 9 10 9 8 8 6 5 5 4
4 11 7 10 9 7 10 6 7 8 4 2 8 11 14 16 15 16 21 18 18 16 18 19 14 12 11 9 3 4 7 8 7 15 8 9 6 8 10 10 10 10 10 10 7 5 6 6 6
8 4 5 5 6 7 9 14 6 8 2 10 16 17 16 15 16 16 15 18 16 14 11 16 14 11 6 6 2 4 8 10 10 13 13 5 5 9 10 11 11 10 9 8 7 6 6 6 4
6 6 4 4 2 5 4 3 6 7 5 15 18 18 18 16 15 16 16 16 15 14 14 13 13 14 9 3 0 4 7 14 12 9 11 3 8 11 10 10 10 8 7 9 7 6 7 7 6
3 6 4 4 5 3 3 7 4 5 16 19 21 21 21 19 17 14 14 16 16 13 10 10 10 9 7 6 4 6 8 8 10 10 12 12 7 10 10 9 8 8 8 9 8 9 9 8 7
Wind_Direction
230 267 276 244 225 236 167 156 157 162 155 85 60 309 5 360 350 2 90 172 173 168 167 173 161 171 163 157 165 157 160 155 146 144 143 140 141 135 132 123 116 112 106 89 74 79 79 77 69
228 242 238 232 254 214 143 139 174 101 26 298 282 251 225 68 53 96 139 177 177 168 171 175 170 163 160 163 172 168 165 148 143 147 147 137 141 142 139 126 120 119 112 88 95 90 88 79 71
279 313 263 265 240 273 110 159 103 331 310 253 230 295 348 50 84 124 97 157 169 167 171 166 159 162 167 175 187 172 170 159 154 153 159 156 150 149 144 131 123 119 113 98 96 96 91 83 71
315 202 166 252 233 116 136 138 326 300 141 206 271 214 164 44 20 63 127 155 163 167 172 145 163 170 177 184 174 166 171 162 156 156 173 170 162 156 155 148 133 127 122 108 99 102 95 89 83
338 263 252 243 234 306 233 330 326 293 279 245 317 47 10 79 55 119 141 164 171 171 174 165 176 182 186 177 171 162 149 152 161 171 176 175 168 163 162 154 149 147 143 128 115 119 112 97 83
246 290 259 255 188 190 232 322 312 298 306 51 255 280 60 65 86 111 151 171 177 174 179 170 177 187 184 181 181 184 177 171 178 181 189 184 176 169 170 161 160 154 149 140 130 123 121 104 88
305 289 305 297 305 259 113 354 1 335 307 46 332 286 69 56 87 153 169 172 179 180 184 180 183 188 194 189 191 194 196 195 193 192 204 215 205 178 173 170 166 165 163 157 146 132 129 115 107
331 277 274 243 303 102 45 28 22 10 69 329 335 36 21 8 351 182 179 181 182 183 193 192 188 188 193 188 194 193 198 199 204 205 203 207 231 199 180 179 175 173 167 162 156 149 132 136 118
219 238 244 256 239 70 360 319 84 327 265 313 327 303 359 3 217 204 202 196 191 196 199 197 193 193 198 199 184 198 205 209 204 202 201 190 221 190 172 192 160 179 174 167 161 154 143 137 130
234 250 264 55 242 242 280 298 323 293 270 281 267 231 306 295 227 221 216 217 212 203 202 205 199 197 196 199 195 205 199 204 204 200 194 217 214 206 225 168 175 188 179 171 169 162 158 204 160
160 262 140 242 251 276 284 284 291 290 273 275 307 309 300 273 254 252 243 227 219 212 204 208 205 208 204 206 199 199 204 204 217 206 206 220 230 189 207 179 183 192 191 187 183 172 198 192 196
255 261 257 321 271 304 300 315 286 286 291 327 312 303 289 276 269 263 256 244 224 208 209 209 213 202 220 205 212 204 202 205 204 214 201 216 212 221 200 208 193 201 198 210 196 205 175 192 204
251 297 283 267 277 275 270 267 277 277 298 331 323 303 300 291 281 280 284 266 243 224 209 209 206 211 216 216 203 233 213 207 213 194 205 218 213 216 208 227 204 203 205 207 198 195 188 191 195
341 289 283 283 275 263 273 281 240 147 16 321 317 301 326 333 324 288 271 271 248 234 230 216 213 209 204 223 211 207 220 213 215 208 212 211 221 219 218 211 215 211 211 200 189 184 194 191 204
297 297 297 277 304 251 269 237 229 179 313 319 311 301 356 339 330 315 317 286 282 274 243 225 226 215 210 213 218 210 213 217 214 212 207 216 218 222 203 216 208 226 223 193 180 181 193 192 208
282 268 289 94 322 105 258 293 241 203 325 313 304 312 341 337 335 355 343 318 302 282 273 273 226 221 214 214 214 216 211 208 218 208 207 212 220 222 200 205 177 194 185 171 160 173 188 212 222
195 282 287 298 236 247 265 297 265 288 298 291 302 326 335 346 359 353 342 331 314 294 280 268 244 221 218 214 213 210 212 210 210 212 208 213 210 201 201 184 176 158 155 150 160 159 199 193 200
300 280 275 264 244 284 286 278 281 283 280 290 328 347 354 353 358 352 343 338 330 313 291 274 241 229 224 214 210 207 207 211 210 202 205 204 194 188 197 178 165 163 154 141 145 158 179 195 163
276 272 275 281 288 276 277 282 282 277 279 305 355 15 3 357 353 360 356 348 341 327 312 284 254 229 219 208 202 201 204 200 203 202 194 188 187 180 172 166 157 164 151 154 160 154 168 134 164
257 268 273 285 281 262 283 288 293 278 113 88 35 24 11 359 357 2 360 355 351 339 331 310 268 250 222 216 208 209 203 192 188 187 190 181 182 177 172 166 166 168 157 158 165 170 157 168 211
252 264 276 282 289 275 274 278 190 108 128 94 48 26 19 6 357 360 359 0 357 347 336 321 294 253 230 213 211 209 147 154 174 180 183 182 186 178 177 173 167 164 157 174 177 192 188 169 212
270 261 259 270 279 276 196 289 271 236 157 68 43 28 20 5 358 360 357 355 1 355 342 337 315 261 236 214 207 195 196 184 193 179 173 179 185 180 178 176 173 168 163 181 179 189 202 203 180
264 262 263 268 262 273 257 248 287 170 183 65 39 34 25 12 3 1 356 351 352 358 358 351 336 286 233 216 211 210 219 220 176 161 170 171 179 180 178 175 175 173 175 172 172 183 198 204 177
305 269 258 262 262 253 263 256 257 278 100 103 45 32 19 12 6 1 3 359 349 350 5 5 349 346 259 214 213 216 221 222 182 168 161 163 165 170 173 174 176 169 171 174 171 189 191 183 162
234 251 262 244 218 253 286 284 249 125 101 81 39 18 4 357 355 354 356 0 357 348 357 21 349 344 353 218 229 214 215 190 202 181 163 159 166 168 171 175 173 174 167 162 170 177 174 171 159
244 253 243 261 261 279 90 248 92 116 109 75 19 357 353 350 349 344 344 349 1 347 348 9 356 346 3 316 245 216 155 178 146 104 84 160 160 162 163 169 175 172 158 161 181 180 153 150 156
206 233 315 281 265 276 254 243 166 154 145 348 353 346 346 344 345 340 332 341 347 356 348 358 359 340 312 288 280 135 138 137 138 109 61 13 129 152 159 159 164 163 163 176 162 155 161 162 158
256 5 223 207 248 240 251 263 276 168 327 341 341 342 342 338 338 337 334 331 337 346 346 341 349 317 330 326 278 172 147 134 131 109 118 199 183 147 152 160 159 159 168 166 153 161 140 132 123
196 219 225 296 249 276 287 268 76 92 351 333 331 331 330 331 328 329 329 326 319 325 335 347 335 324 343 355 47 153 135 132 129 114 102 102 198 150 157 158 154 148 158 147 157 160 131 125 126
275 296 305 227 162 238 310 273 107 23 344 338 333 329 326 322 318 312 311 313 311 314 322 323 319 311 321 348 90 106 111 130 125 141 145 146 188 156 157 155 152 151 156 151 156 137 133 135 127